Powrót do katalogu

BS-3B

YURI 3B

AktywnyŁącznośćGEO
NORAD 21668·PAYLOAD·🇯🇵 Japan

Wystrzelony Aug 25, 1991 z Tanegashima Space Center

Loading…

TLE

ŚwieżeSource: Space-Track

Epoka: Sep 14, 2026, 06:32 UTC

1 21668U 91060A   26257.27241381 -.00000098  00000-0  00000-0 0  9997
2 21668  13.3994 356.4714 0006058 194.1994 183.9300  0.98791579130193

Śledź BS-3B w czasie rzeczywistym z AllMySat

Download on the App Store